sat.trackr.live / text

‹ back to catalog

STARLINK-36040

NORAD 66614 · 2025-270AC

PAYLOAD ACTIVE UNKNOWN

§ Identity

Operator
Country
US
Launch date
2025-11-22
Launch site
AFETR
Launch vehicle
Mass (kg)
RCS (m²)

Purposes: comms

External: N2YO · Heavens-Above · Gunter

§ Orbital elements

Epoch: 2026-09-20T02:17:10.806144Z

Period
94.27 min
Inclination
43.0003°
Eccentricity
0.0001221
Mean motion
15.27584981 rev/d
Perigee alt
482.2 km
Apogee alt
483.9 km
Semi-major
6,861.2 km
B*
4.4219e-4
RAAN
38.6274°
Arg perigee
281.5162°
Mean anomaly
78.5552°
Rev number
4,727

§ Raw data

STARLINK-360401 66614U 25270AC  26263.09526396  .00011927  00000+0  44219-3 0  99902 66614  43.0003  38.6274 0001221 281.5162  78.5552 15.27584981 47278

JSON: /api/v1/satellites/66614 · /tle

For live sub-satellite position, see the globe view (requires WebGL).

§ Visibility from observer

Set your observer location to see the next 7 days of passes ≥ 10°. The values pass through the URL so the page stays shareable.

No JS? Fill the form by hand. The geolocation button needs JavaScript.